Home   Weather   Santa Clara   Past weeks

Flag for USA Past Weather in Santa Clara, California, USA — Yesterday and Last 2 Weeks

Now
56 °F

Scattered clouds.


Feels Like: 52 °F
Forecast: 47 / 55 °F
Wind: 14 mph from Southeast

Location: San Jose International Airport

Current Time: Jan 22, 2017 at 12:54:45 pm

Latest Report: Jan 22, 2017 at 11:53 am


Visibility: 10 mi

Pressure: 29.75 "Hg

Humidity: 81%

Dew Point: 50 °F

Location of Santa ClaraLocation

Past Weather in Santa Clara — Graph

°F

Santa Clara Temperature Yesterday

Maximum temperature yesterday: 56 °F (at 12:53 pm)
Minimum temperature yesterday: 44 °F (at 3:53 am)
Average temperature yesterday: 50 °F

High & Low Weather Summary for the Past Weeks

 TemperatureHumidityPressure
High64 °F (Jan 8, 10:53 am)100% (Jan 12, 8:13 am)30.24 "Hg (Jan 12, 8:13 am)
Low36 °F (Jan 16, 6:40 am)44% (Jan 14, 2:53 pm)29.34 "Hg (Jan 20, 6:53 am)
Average51 °F80%29.94 "Hg
* Reported Jan 7 10:34 am — Jan 22 10:53 am, Santa Clara, Weather by CustomWeather, © 2017

Note: Actual official high and low records may vary slightly from our data, if they occured in-between our weather recording intervals... More about our weather records

Advertising

Santa Clara Weather History for the Previous 24 Hours

Scroll right to see more
 ConditionsComfort  
Time TempWeatherWind HumidityBarometerVisibility
10:53 am
Sun, Jan 22
54 °FScattered clouds.13 mph83%29.79 "Hg10 mi
9:53 am52 °FPartly sunny.7 mph89%29.80 "Hg10 mi
8:53 am51 °FBroken clouds.8 mph96%29.78 "Hg10 mi
7:53 am50 °FBroken clouds.12 mph96%29.76 "Hg10 mi
7:23 am50 °FLight rain. Fog.13 mph96%29.75 "Hg6 mi
6:53 am50 °FLight rain. Fog.15 mph96%29.74 "Hg5 mi
5:53 am50 °FRain. Fog.22 mph86%29.72 "Hg3 mi
4:53 am50 °FLight rain. Fog.24 mph86%29.67 "Hg4 mi
3:53 am49 °FLight rain. Fog.28 mph86%29.67 "Hg4 mi
2:53 am49 °FLight rain. Overcast.28 mph86%29.68 "Hg7 mi
1:53 am50 °FLight rain. Mostly cloudy.31 mph83%29.68 "Hg5 mi
12:53 am50 °FLight rain. Overcast.36 mph80%29.71 "Hg8 mi
11:53 pm
Sat, Jan 21
52 °FLight rain. Partly cloudy.32 mph66%29.73 "Hg10 mi
10:53 pm51 °FLight rain. Overcast.29 mph69%29.76 "Hg10 mi
9:53 pm50 °FLight rain. Overcast.22 mph74%29.80 "Hg10 mi
8:53 pm50 °FLight rain. Mostly cloudy.18 mph80%29.85 "Hg10 mi
7:53 pm51 °FLight rain. Mostly cloudy.18 mph74%29.86 "Hg10 mi
6:53 pm52 °FLight rain. Mostly cloudy.9 mph69%29.88 "Hg10 mi
5:53 pm53 °FLight rain. Mostly cloudy.12 mph66%29.88 "Hg10 mi
4:56 pm53 °FMostly cloudy.13 mph69%29.89 "Hg10 mi
3:53 pm54 °FMostly cloudy.13 mph64%29.88 "Hg10 mi
2:53 pm55 °FCloudy.8 mph59%29.88 "Hg10 mi
1:53 pm56 °FMore clouds than sun.10 mph67%29.87 "Hg10 mi
12:53 pm56 °FMore clouds than sun.12 mph65%29.87 "Hg10 mi
Weather by CustomWeather, © 2017

See weather overviewHow to use our weather pages